Time,TemperatureF,DewpointF,PressureIn,WindDirection,WindDirectionDegrees,WindSpeedMPH,WindSpeedGustMPH,Humidity,HourlyPrecipIn,Conditions,Clouds,dailyrainin,SoftwareType,DateUTC
2016-10-01 00:03:00,50.9,45.3,30.51,South,180,0.0,0.0,81,0.04,RA,,0.00,WeatherDisplay:10.37,2016-10-01 04:03:00,
2016-10-01 00:08:00,50.7,45.1,30.51,South,180,0.0,0.0,81,0.04,RA,,0.00,WeatherDisplay:10.37,2016-10-01 04:08:00,
2016-10-01 00:13:00,50.7,45.1,30.51,South,180,0.0,0.0,81,0.04,RA,,0.02,WeatherDisplay:10.37,2016-10-01 04:13:00,
2016-10-01 00:18:00,50.7,45.1,30.51,South,180,0.0,0.0,81,0.04,RA,,0.02,WeatherDisplay:10.37,2016-10-01 04:18:00,
2016-10-01 00:23:00,50.7,45.4,30.51,South,180,0.0,0.0,82,0.04,CLR,,0.02,WeatherDisplay:10.37,2016-10-01 04:23:00,
2016-10-01 00:28:00,50.7,45.4,30.51,South,180,0.0,0.0,82,0.04,CLR,,0.02,WeatherDisplay:10.37,2016-10-01 04:28:00,
2016-10-01 00:33:00,50.7,45.4,30.50,SSE,158,0.0,0.0,82,0.04,RA,,0.04,WeatherDisplay:10.37,2016-10-01 04:33:00,
2016-10-01 00:38:00,50.5,45.2,30.50,SSE,158,0.0,0.0,82,0.04,RA,,0.04,WeatherDisplay:10.37,2016-10-01 04:38:00,
2016-10-01 00:43:00,50.5,45.2,30.50,SSE,158,0.0,0.0,82,0.04,CLR,,0.04,WeatherDisplay:10.37,2016-10-01 04:43:00,
2016-10-01 00:48:00,50.5,45.6,30.51,SSE,158,0.0,0.0,83,0.04,CLR,,0.04,WeatherDisplay:10.37,2016-10-01 04:48:00,
2016-10-01 00:54:00,50.5,45.6,30.50,SSE,158,0.0,0.0,83,0.04,CLR,,0.04,WeatherDisplay:10.37,2016-10-01 04:54:00,
2016-10-01 00:59:00,50.5,45.6,30.51,NW,315,0.0,0.0,83,0.06,RA,,0.06,WeatherDisplay:10.37,2016-10-01 04:59:00,
2016-10-01 01:04:00,50.4,45.7,30.50,North,0,0.0,0.0,84,0.06,RA,,0.06,WeatherDisplay:10.37,2016-10-01 05:04:00,
2016-10-01 01:09:00,50.2,45.5,30.50,NW,315,0.0,0.0,84,0.06,CLR,,0.06,WeatherDisplay:10.37,2016-10-01 05:09:00,
2016-10-01 01:14:00,50.2,45.5,30.50,North,0,0.4,2.9,84,0.04,CLR,,0.06,WeatherDisplay:10.37,2016-10-01 05:14:00,
2016-10-01 01:19:00,49.8,45.5,30.51,NNW,338,0.0,0.0,85,0.04,CLR,,0.06,WeatherDisplay:10.37,2016-10-01 05:19:00,
2016-10-01 01:24:00,49.8,45.5,30.50,NE,45,0.0,0.0,85,0.04,CLR,,0.06,WeatherDisplay:10.37,2016-10-01 05:24:00,
2016-10-01 01:29:00,49.8,45.5,30.50,North,0,0.0,0.0,85,0.04,CLR,,0.06,WeatherDisplay:10.37,2016-10-01 05:29:00,
2016-10-01 01:34:00,49.8,45.5,30.50,NE,45,0.0,0.0,85,0.02,CLR,,0.06,WeatherDisplay:10.37,2016-10-01 05:34:00,
2016-10-01 01:39:00,49.8,45.5,30.50,North,0,0.0,0.0,85,0.02,CLR,,0.06,WeatherDisplay:10.37,2016-10-01 05:39:00,
2016-10-01 01:44:00,49.8,45.5,30.50,WNW,292,1.6,3.8,85,0.02,CLR,,0.06,WeatherDisplay:10.37,2016-10-01 05:44:00,
2016-10-01 01:49:00,49.8,45.5,30.50,North,0,1.7,4.6,85,0.02,CLR,,0.06,WeatherDisplay:10.37,2016-10-01 05:49:00,
2016-10-01 01:54:00,49.6,45.3,30.50,NW,315,0.0,0.0,85,0.02,CLR,,0.06,WeatherDisplay:10.37,2016-10-01 05:54:00,
2016-10-01 01:59:00,49.5,45.4,30.50,NE,45,0.6,2.3,86,0.00,CLR,,0.06,WeatherDisplay:10.37,2016-10-01 05:59:00,
2016-10-01 02:04:00,49.3,45.3,30.50,North,0,2.2,4.6,86,0.00,CLR,,0.06,WeatherDisplay:10.37,2016-10-01 06:04:00,
2016-10-01 02:09:00,49.1,45.1,30.49,WNW,292,0.0,0.0,86,0.00,CLR,,0.06,WeatherDisplay:10.37,2016-10-01 06:09:00,
2016-10-01 02:14:00,49.1,45.1,30.49,NNW,338,0.6,4.9,86,0.02,RA,,0.08,WeatherDisplay:10.37,2016-10-01 06:14:00,
2016-10-01 02:19:00,48.9,45.2,30.50,NNW,338,0.0,0.0,87,0.02,RA,,0.08,WeatherDisplay:10.37,2016-10-01 06:19:00,
2016-10-01 02:24:00,48.9,45.2,30.49,NNW,338,0.9,3.5,87,0.02,CLR,,0.08,WeatherDisplay:10.37,2016-10-01 06:24:00,
2016-10-01 02:29:00,48.9,45.2,30.49,North,0,4.5,6.9,87,0.02,CLR,,0.08,WeatherDisplay:10.37,2016-10-01 06:29:00,
2016-10-01 02:34:00,48.9,45.2,30.49,NNE,22,0.8,5.8,87,0.02,CLR,,0.08,WeatherDisplay:10.37,2016-10-01 06:34:00,
2016-10-01 02:39:00,48.7,45.0,30.49,NW,315,3.2,5.1,87,0.02,CLR,,0.08,WeatherDisplay:10.37,2016-10-01 06:39:00,
2016-10-01 02:44:00,48.7,45.0,30.49,NW,315,0.0,0.0,87,0.02,CLR,,0.08,WeatherDisplay:10.37,2016-10-01 06:44:00,
2016-10-01 02:49:00,48.7,45.0,30.49,North,0,1.9,6.9,87,0.02,CLR,,0.08,WeatherDisplay:10.37,2016-10-01 06:49:00,
2016-10-01 02:54:00,48.7,45.3,30.49,ENE,68,0.0,0.0,88,0.02,CLR,,0.08,WeatherDisplay:10.37,2016-10-01 06:54:00,
2016-10-01 02:59:00,48.7,45.3,30.49,NW,315,1.6,3.5,88,0.02,CLR,,0.08,WeatherDisplay:10.37,2016-10-01 06:59:00,
2016-10-01 03:04:00,48.9,45.5,30.48,North,0,0.0,0.0,88,0.02,CLR,,0.08,WeatherDisplay:10.37,2016-10-01 07:04:00,
2016-10-01 03:09:00,48.9,45.5,30.48,WNW,292,0.0,0.0,88,0.02,CLR,,0.08,WeatherDisplay:10.37,2016-10-01 07:09:00,
2016-10-01 03:14:00,48.9,45.5,30.47,North,0,0.7,2.3,88,0.00,CLR,,0.08,WeatherDisplay:10.37,2016-10-01 07:14:00,
2016-10-01 03:19:00,48.9,45.5,30.48,NW,315,0.7,6.9,88,0.00,CLR,,0.08,WeatherDisplay:10.37,2016-10-01 07:19:00,
2016-10-01 03:24:00,48.9,45.5,30.48,NW,315,1.2,3.5,88,0.00,CLR,,0.08,WeatherDisplay:10.37,2016-10-01 07:24:00,
2016-10-01 03:29:00,48.9,45.5,30.48,North,0,0.0,0.0,88,0.00,CLR,,0.08,WeatherDisplay:10.37,2016-10-01 07:29:00,
2016-10-01 03:34:00,48.9,45.5,30.48,WNW,292,0.4,1.2,88,0.00,CLR,,0.08,WeatherDisplay:10.37,2016-10-01 07:34:00,
2016-10-01 03:39:00,48.9,45.5,30.47,NW,315,0.0,0.0,88,0.00,CLR,,0.08,WeatherDisplay:10.37,2016-10-01 07:39:00,
2016-10-01 03:44:00,48.9,45.5,30.47,NNW,338,0.4,3.5,88,0.00,CLR,,0.08,WeatherDisplay:10.37,2016-10-01 07:44:00,
2016-10-01 03:49:00,49.1,45.7,30.47,ENE,68,3.6,5.8,88,0.00,CLR,,0.08,WeatherDisplay:10.37,2016-10-01 07:49:00,
2016-10-01 03:54:00,49.1,45.7,30.47,NE,45,0.8,3.5,88,0.00,CLR,,0.08,WeatherDisplay:10.37,2016-10-01 07:54:00,
2016-10-01 03:59:00,49.1,46.0,30.46,NNW,338,0.9,4.6,89,0.00,CLR,,0.08,WeatherDisplay:10.37,2016-10-01 07:59:00,
2016-10-01 04:04:00,49.1,46.0,30.47,WNW,292,0.5,2.3,89,0.00,CLR,,0.08,WeatherDisplay:10.37,2016-10-01 08:04:00,
2016-10-01 04:09:00,49.1,46.0,30.47,WNW,292,0.6,2.3,89,0.00,CLR,,0.08,WeatherDisplay:10.37,2016-10-01 08:09:00,
2016-10-01 04:14:00,49.1,46.0,30.46,NW,315,1.4,5.8,89,0.00,CLR,,0.08,WeatherDisplay:10.37,2016-10-01 08:14:00,
2016-10-01 04:19:00,48.9,45.8,30.46,NNW,338,0.0,0.0,89,0.00,CLR,,0.08,WeatherDisplay:10.37,2016-10-01 08:19:00,
2016-10-01 04:24:00,49.1,46.0,30.46,North,0,0.0,0.0,89,0.00,CLR,,0.08,WeatherDisplay:10.37,2016-10-01 08:24:00,
2016-10-01 04:29:00,49.1,46.0,30.46,North,0,0.0,0.0,89,0.00,CLR,,0.08,WeatherDisplay:10.37,2016-10-01 08:29:00,
2016-10-01 04:34:00,49.1,46.0,30.45,NNW,338,0.0,0.0,89,0.00,CLR,,0.08,WeatherDisplay:10.37,2016-10-01 08:34:00,
2016-10-01 04:39:00,49.1,46.0,30.45,ENE,68,3.3,6.9,89,0.00,CLR,,0.08,WeatherDisplay:10.37,2016-10-01 08:39:00,
2016-10-01 04:44:00,49.1,46.0,30.45,WNW,292,0.0,0.0,89,0.00,CLR,,0.08,WeatherDisplay:10.37,2016-10-01 08:44:00,
2016-10-01 04:49:00,49.1,46.0,30.45,NE,45,0.0,0.0,89,0.00,CLR,,0.08,WeatherDisplay:10.37,2016-10-01 08:49:00,
2016-10-01 04:54:00,49.3,46.2,30.45,NW,315,0.0,0.0,89,0.00,CLR,,0.08,WeatherDisplay:10.37,2016-10-01 08:54:00,
2016-10-01 04:59:00,49.3,46.2,30.45,North,0,3.9,9.2,89,0.00,CLR,,0.08,WeatherDisplay:10.37,2016-10-01 08:59:00,
2016-10-01 05:04:00,49.3,46.2,30.45,NW,315,1.2,5.8,89,0.00,CLR,,0.08,WeatherDisplay:10.37,2016-10-01 09:04:00,
2016-10-01 05:09:00,49.3,46.2,30.45,NW,315,0.0,0.0,89,0.00,CLR,,0.08,WeatherDisplay:10.37,2016-10-01 09:09:00,
2016-10-01 05:14:00,49.3,46.2,30.46,NNW,338,0.0,0.0,89,0.00,CLR,,0.08,WeatherDisplay:10.37,2016-10-01 09:14:00,
2016-10-01 05:19:00,49.3,46.2,30.45,NW,315,0.1,2.3,89,0.00,CLR,,0.08,WeatherDisplay:10.37,2016-10-01 09:19:00,
2016-10-01 05:24:00,49.3,46.2,30.46,NNE,22,0.0,0.0,89,0.00,CLR,,0.08,WeatherDisplay:10.37,2016-10-01 09:24:00,
2016-10-01 05:29:00,49.3,46.2,30.46,NW,315,1.1,3.5,89,0.00,CLR,,0.08,WeatherDisplay:10.37,2016-10-01 09:29:00,
2016-10-01 05:34:00,49.5,46.6,30.46,North,0,0.8,2.3,90,0.00,CLR,,0.08,WeatherDisplay:10.37,2016-10-01 09:34:00,
2016-10-01 05:39:00,49.5,46.6,30.46,NW,315,1.1,3.5,90,0.00,CLR,,0.08,WeatherDisplay:10.37,2016-10-01 09:39:00,
2016-10-01 05:44:00,49.5,46.6,30.46,NNE,22,0.2,2.3,90,0.00,CLR,,0.08,WeatherDisplay:10.37,2016-10-01 09:44:00,
2016-10-01 05:49:00,49.6,46.8,30.46,NNW,338,0.0,0.0,90,0.00,CLR,,0.08,WeatherDisplay:10.37,2016-10-01 09:49:00,
2016-10-01 05:54:00,49.6,46.8,30.46,NE,45,0.0,0.0,90,0.00,CLR,,0.08,WeatherDisplay:10.37,2016-10-01 09:54:00,
2016-10-01 05:59:00,49.6,46.5,30.46,NW,315,3.1,10.4,89,0.00,CLR,,0.08,WeatherDisplay:10.37,2016-10-01 09:59:00,
2016-10-01 06:04:00,49.6,46.8,30.46,NW,315,0.1,4.6,90,0.00,CLR,,0.08,WeatherDisplay:10.37,2016-10-01 10:04:00,
2016-10-01 06:09:00,49.5,46.6,30.46,NNE,24,0.0,0.0,90,0.00,CLR,,0.08,WeatherDisplay:10.37,2016-10-01 10:09:00,
2016-10-01 06:14:00,49.5,46.4,30.46,North,0,2.8,8.1,89,0.00,CLR,,0.08,WeatherDisplay:10.37,2016-10-01 10:14:00,
2016-10-01 06:19:00,49.3,46.5,30.46,WNW,292,1.1,4.6,90,0.00,CLR,,0.08,WeatherDisplay:10.37,2016-10-01 10:19:00,
2016-10-01 06:24:00,49.3,46.2,30.45,North,0,0.0,0.0,89,0.00,CLR,,0.08,WeatherDisplay:10.37,2016-10-01 10:24:00,
2016-10-01 06:29:00,49.3,46.2,30.45,NNW,338,0.7,5.8,89,0.00,CLR,,0.08,WeatherDisplay:10.37,2016-10-01 10:29:00,
2016-10-01 06:34:00,49.3,46.2,30.45,NNE,22,1.8,4.6,89,0.00,CLR,,0.08,WeatherDisplay:10.37,2016-10-01 10:34:00,
2016-10-01 06:39:00,49.3,46.5,30.45,WNW,292,1.6,4.6,90,0.00,CLR,,0.08,WeatherDisplay:10.37,2016-10-01 10:39:00,
2016-10-01 06:44:00,49.1,46.3,30.45,West,270,2.2,10.5,90,0.00,CLR,,0.08,WeatherDisplay:10.37,2016-10-01 10:44:00,
2016-10-01 06:54:00,49.1,46.3,30.45,NNE,22,0.1,2.3,90,0.00,CLR,,0.08,WeatherDisplay:10.37,2016-10-01 10:54:00,
2016-10-01 06:59:00,49.1,46.3,30.45,NNW,338,2.5,5.8,90,0.00,CLR,,0.08,WeatherDisplay:10.37,2016-10-01 10:59:00,
2016-10-01 07:04:00,49.1,46.3,30.45,NW,315,5.2,7.4,90,0.00,CLR,,0.08,WeatherDisplay:10.37,2016-10-01 11:04:00,
2016-10-01 07:09:00,49.1,46.3,30.45,North,0,3.5,5.8,90,0.00,CLR,,0.08,WeatherDisplay:10.37,2016-10-01 11:09:00,
2016-10-01 07:14:00,48.9,46.1,30.45,WNW,292,1.2,3.5,90,0.00,CLR,,0.08,WeatherDisplay:10.37,2016-10-01 11:14:00,
2016-10-01 07:19:00,49.1,46.3,30.45,NNW,338,2.3,4.6,90,0.00,CLR,,0.08,WeatherDisplay:10.37,2016-10-01 11:19:00,
2016-10-01 07:24:00,49.1,46.3,30.45,NNW,338,4.3,6.9,90,0.00,CLR,,0.08,WeatherDisplay:10.37,2016-10-01 11:24:00,
2016-10-01 07:29:00,49.3,46.5,30.45,North,0,3.8,6.9,90,0.00,CLR,,0.08,WeatherDisplay:10.37,2016-10-01 11:29:00,
2016-10-01 07:34:00,49.3,46.5,30.45,NW,315,1.6,5.4,90,0.00,CLR,,0.08,WeatherDisplay:10.37,2016-10-01 11:34:00,
2016-10-01 07:39:00,49.3,46.5,30.45,NW,315,0.7,3.6,90,0.00,CLR,,0.08,WeatherDisplay:10.37,2016-10-01 11:39:00,
2016-10-01 07:44:00,49.5,46.6,30.45,NW,315,1.3,3.5,90,0.00,CLR,,0.08,WeatherDisplay:10.37,2016-10-01 11:44:00,
2016-10-01 07:49:00,49.6,46.8,30.45,NNW,338,0.2,3.5,90,0.00,CLR,,0.08,WeatherDisplay:10.37,2016-10-01 11:49:00,
2016-10-01 07:54:00,49.6,46.8,30.45,NE,45,3.0,4.9,90,0.00,CLR,,0.08,WeatherDisplay:10.37,2016-10-01 11:54:00,
2016-10-01 07:59:00,49.6,46.8,30.45,NNW,338,1.6,4.6,90,0.00,CLR,,0.08,WeatherDisplay:10.37,2016-10-01 11:59:00,
2016-10-01 08:04:00,49.6,46.8,30.45,NE,45,0.0,1.2,90,0.00,CLR,,0.08,WeatherDisplay:10.37,2016-10-01 12:04:00,
2016-10-01 08:09:00,49.8,47.0,30.45,NNE,22,3.8,5.8,90,0.00,CLR,,0.08,WeatherDisplay:10.37,2016-10-01 12:09:00,
2016-10-01 08:14:00,50.2,47.4,30.44,NE,45,0.7,5.1,90,0.00,CLR,,0.08,WeatherDisplay:10.37,2016-10-01 12:14:00,